Hourly Data Report for April 02, 2018

KUGAARUK CLIMATE
NUNAVUT
Current Station Operator: ECCC - MSC

68°32'15.060" N
89°47'47.020" W
15.80 m
2303094
71407
NBB

Download Data

Hourly Data (April 2018)
Hourly Data Report for April 2, 2018
TIME
LST
Temp Definition
°C
Dew Point Definition
°C
Rel Hum Definition
%
Precip. Amount Definition
mm

Wind Dir Definition
10's deg

Wind Spd Definition
km/h
Visibility Definition
km
Stn Press Definition
kPa
Hmdx Definition


Wind Chill Definition


Weather Definition


00:00 -15.0 -16.8 87 0.0 5 3   100.94   -17 LegendNANA
01:00 -15.3 -17.2 86 0.0 26 7   101.01   -20 LegendNANA
02:00 -16.3 -18.2 85 0.0 0 1   101.08   -17 LegendNANA
03:00 -22.0 -24.4 81 0.0 2 6   101.18   -27 LegendNANA
04:00 -20.3 -22.5 82 0.0 0 1   101.24   -21 LegendNANA
05:00 -19.8 -22.1 82 0.0 22 4   101.34   -23 LegendNANA
06:00 -19.9 -22.3 82 0.0 20 5   101.41   -24 LegendNANA
07:00 -20.1 -22.3 83 0.0 11 10   101.49   -27 LegendNANA
08:00 -20.3 -22.8 80 0.0 11 13   101.54   -29 LegendNANA
09:00 -19.9 -22.5 80 0.0 11 11   101.59   -28 LegendNANA
10:00 -19.7 -22.2 81 0.0 9 12   101.62   -28 LegendNANA
11:00 -19.3 -21.7 82 0.0 10 12   101.68   -27 LegendNANA
12:00 -19.4 -21.8 82 0.0 6 8   101.73   -26 LegendNANA
13:00 -18.9 -21.6 79 0.0 10 3   101.75   -21 LegendNANA
14:00 -18.5 -21.7 76 0.0 10 3   101.79   -21 LegendNANA
15:00 -17.6 -20.1 81 0.0 3 10   101.78   -24 LegendNANA
16:00 -16.4 -18.6 83 0.0 1 19   101.74   -26 LegendNANA
17:00 -15.6 -17.6 84 0.0 2 19   101.74   -25 LegendNANA
18:00 -14.3 -16.1 86 0.2 2 18   101.69   -23 LegendNANA
19:00 -13.6 -15.3 87 0.0 5 19   101.65   -22 LegendNANA
20:00 -12.4 -14.0 88 0.2 6 22   101.56   -21 LegendNANA
21:00 -11.1 -12.7 88 0.0 4 17   101.54   -19 LegendNANA
22:00 -8.1 -9.3 91 0.0 4 11   101.49   -13 LegendNANA
23:00 -5.7 -7.3 89 0.0 6 26   101.42   -13 LegendNANA

Notes on Data Quality.

Legend

  • E = Estimated
  • M = Missing
  • NA = Not Available*
  • [empty] = Indicates an unobserved value
Date modified: